"Pseudo-MPEC" for CEPANX2

Created 2026 Jun 17 18:35:04 UT using Find_Orb

Click here for an explanation of pseudo-MPECs

 
 Astrometry: 
     CEPANX2*1C2026 06 16.41294322 13 39.886+15 47 30.01   ~6GAZ 21.03GVNEOCPG96
     CEPANX2 1C2026 06 16.41762322 13 39.979+15 47 37.10   ~6GAZ 21.14GVNEOCPG96
     CEPANX2 1C2026 06 16.42231222 13 40.055+15 47 44.05   ~6GAZ       VNEOCPG96
     CEPANX2 1C2026 06 16.42698922 13 40.116+15 47 51.22   ~6GAZ       VNEOCPG96
     CEPANX2  C2026 06 16.44258922 13 40.406+15 48 14.02   ~6GBK 20.3 GWNEOCPH01
     CEPANX2  C2026 06 16.44607822 13 40.470+15 48 19.18   ~6GBK 20.4 GWNEOCPH01
     CEPANX2  C2026 06 16.45089222 13 40.558+15 48 26.44   ~6GBK 20.4 GWNEOCPH01
     CEPANX2 1C2026 06 16.45177822 13 40.591+15 48 27.68   ~6GBK 20.61GVNEOCPI52
     CEPANX2 1C2026 06 16.45552922 13 40.660+15 48 33.30   ~6GBK 20.62GVNEOCPI52
     CEPANX2 1C2026 06 16.45859522 13 40.724+15 48 38.09   ~6GBK 20.40GVNEOCPI52
     CEPANX2 1C2026 06 16.46137622 13 40.771+15 48 42.44   ~6GBK 20.60GVNEOCPI52
     CEPANX2  C2026 06 16.46303622 13 40.777+15 48 44.41   ~6GBK 20.5 GWNEOCPH01
     CEPANX2 KC2026 06 17.33688922 13 57.81 +16 10 26.6    ~6HHK 21.1 GVNEOCPH21
     CEPANX2 KC2026 06 17.33968722 13 57.87 +16 10 30.8    ~6HHK 21.0 GVNEOCPH21
     CEPANX2  C2026 06 17.41122722 13 59.125+16 12 17.99   ~6HAZ 20.4 GWNEOCPH01
     CEPANX2  C2026 06 17.41613722 13 59.211+16 12 25.21   ~6HAZ 20.6 GWNEOCPH01
     CEPANX2  C2026 06 17.42618022 13 59.381+16 12 40.22   ~6HAZ 20.6 GWNEOCPH01
     CEPANX2  C2026 06 17.43248122 13 59.479+16 12 49.37   ~6HAZ 20.5 GWNEOCPH01

Station data:
(G96) Mt. Lemmon Survey  (N32.442729 W110.788720)
   US/Arizona.  Observer E. J. Christensen. Measurers T. Beuden, V. F.
   Carvajal, D. Fay, J. B. Fazekas, D. C. Fuls, A. R. Gibbs, A. D. Grauer, H.
   Gröller, J. K. Hogan, R. A. Kowalski, S. M. Larson, G. J. Leonard, D.
   Rankin, R. L. Seaman, F. C. Shelly, K. W. Wierzchoś. 1.5-m reflector + 10K
   CCD.
(H01) Magdalena Ridge Observatory, Socorro  (N33.984833 W107.189333)  US/New
   Mexico.  Observers W. H. Ryan, E. V. Ryan. Measurer W. H. Ryan. 2.4-m
   f/8.9 reflector + CCD.
(H21) Astronomical Research Observatory, Westfield  (N39.483054 W87.968270)
   US/Illinois.  Observer R. Holmes. Measurers S. Foglia, L. Buzzi, T.
   Linder, R. Holmes. 0.40-m f/5.32 astrograph + CCD.
(I52) Steward Observatory, Mt. Lemmon Station  (N32.442570 W110.788920)
   US/Arizona. Measurers T. Beuden, V. F. Carvajal, D. Fay, J. B. Fazekas, D.
   C. Fuls, A. R. Gibbs, A. D. Grauer, H. Gröller, J. K. Hogan, R. A.
   Kowalski, S. M. Larson, G. J. Leonard, D. Rankin, R. L. Seaman, F. C.
   Shelly, K. W. Wierzchoś. 1.0-m prime focus + CCD.

Orbital elements:  CEPANX2
   Perihelion 2026 Mar 14.336447 +/- 145 TT =  8:04:29.0 (JD 2461113.836447)
Epoch 2026 Jun 17.0 TT = JDT 2461208.5   Earth MOID: 0.7622      AutoNEOCP
M   9.772019210 +/- 70              (J2000 ecliptic)
n   0.103228950 +/- 0.201           Peri.  355.220074 +/- 100
a   4.500578841 +/- 5.84            Node   273.193980 +/- 18
e   0.60506254 +/- 0.225            Incl.   29.388267 +/- 8
P   9.54778                H 17.20  G  0.15   U 11.7  SR
q 1.777447173 +/- 0.663    Q 7.223710509 +/- 8.54
From 18 observations 2026 June 16-17 (24.5 hr); mean residual 0".19
Residuals in arcseconds: 
260616 G96  .02+  .22+    260616 H01  .03+  .08-    260617 H21  .25+  .11-    
260616 G96  .12+  .30+    260616 I52  .04-  .29-    260617 H21  .44+  .09-    
260616 G96  .02-  .22+    260616 I52  .02-  .29-    260617 H01  .23-  .16+    
260616 G96  .38-  .38+    260616 I52  .10+  .09-    260617 H01  .16-  .07+    
260616 H01  .02+  .07-    260616 I52  .06+  .10+    260617 H01  .09-  .11+    
260616 H01  .03+  .14-    260616 H01  .02+  .28-    260617 H01  .17-  .12-    

Ephemerides (geocentric):
Date (UTC) HH   RA             Dec           delta  r     elong  mag " sig PA
---- --------  ------------   ------------  ------ ------ -----  --- --------
2026 06 17 19  22 14 05.855   +16 21 44.55  1.5231 2.0109 102.9 20.9 3.43 141
2026 06 17 20  22 14 06.591   +16 22 46.34  1.5230 2.0111 102.9 20.9 3.92 143
2026 06 17 21  22 14 07.324   +16 23 48.11  1.5228 2.0112 103.0 20.9 4.43 145
2026 06 17 22  22 14 08.053   +16 24 49.86  1.5226 2.0114 103.0 20.9 4.98 146
2026 06 17 23  22 14 08.780   +16 25 51.60  1.5225 2.0116 103.0 20.9 5.54 147
2026 06 18 00  22 14 09.503   +16 26 53.32  1.5223 2.0118 103.0 20.9 6.14 148
2026 06 18 01  22 14 10.223   +16 27 55.03  1.5222 2.0120 103.1 20.9 6.75 149
2026 06 18 02  22 14 10.939   +16 28 56.72  1.5220 2.0122 103.1 20.9 7.39 150
2026 06 18 03  22 14 11.653   +16 29 58.40  1.5218 2.0124 103.1 20.9 8.06 150
2026 06 18 04  22 14 12.363   +16 31 00.06  1.5217 2.0125 103.1 20.9 8.75 151
2026 06 18 05  22 14 13.071   +16 32 01.70  1.5215 2.0127 103.2 20.9 9.46 151
2026 06 18 06  22 14 13.775   +16 33 03.33  1.5214 2.0129 103.2 20.9 10.2 151
2026 06 18 07  22 14 14.475   +16 34 04.95  1.5212 2.0131 103.2 20.9 11.0 152
2026 06 18 08  22 14 15.173   +16 35 06.54  1.5210 2.0133 103.2 20.9 11.7 152
2026 06 18 09  22 14 15.867   +16 36 08.12  1.5209 2.0135 103.3 20.9 12.5 152
2026 06 18 10  22 14 16.559   +16 37 09.69  1.5207 2.0137 103.3 20.9 13.4 152
2026 06 18 11  22 14 17.247   +16 38 11.24  1.5206 2.0138 103.3 20.9 14.2 153
2026 06 18 12  22 14 17.931   +16 39 12.77  1.5204 2.0140 103.3 20.9 15.1 153
2026 06 18 13  22 14 18.613   +16 40 14.29  1.5202 2.0142 103.4 20.9 16.0 153
2026 06 18 14  22 14 19.291   +16 41 15.79  1.5201 2.0144 103.4 20.9 16.9 153
2026 06 18 15  22 14 19.967   +16 42 17.28  1.5199 2.0146 103.4 20.9 17.9 153
2026 06 18 16  22 14 20.639   +16 43 18.75  1.5198 2.0148 103.4 20.9 18.9 154
2026 06 18 17  22 14 21.307   +16 44 20.20  1.5196 2.0150 103.5 20.9 19.9 154
2026 06 18 18  22 14 21.973   +16 45 21.64  1.5194 2.0151 103.5 20.9 20.9 154
2026 06 18 19  22 14 22.635   +16 46 23.06  1.5193 2.0153 103.5 20.9 21.9 154
2026 06 18 20  22 14 23.294   +16 47 24.47  1.5191 2.0155 103.5 20.9 23.0 154
2026 06 18 21  22 14 23.950   +16 48 25.86  1.5190 2.0157 103.6 20.9 24.1 154
2026 06 18 22  22 14 24.603   +16 49 27.23  1.5188 2.0159 103.6 20.9 25.2 154
2026 06 18 23  22 14 25.253   +16 50 28.59  1.5187 2.0161 103.6 20.9 26.4 154
2026 06 19 00  22 14 25.899   +16 51 29.93  1.5185 2.0163 103.6 20.9 27.5 154
2026 06 19 01  22 14 26.542   +16 52 31.25  1.5183 2.0165 103.7 20.9 28.7 154
2026 06 19 02  22 14 27.182   +16 53 32.56  1.5182 2.0166 103.7 20.9 29.9 155
2026 06 19 03  22 14 27.819   +16 54 33.85  1.5180 2.0168 103.7 20.9 31.2 155
2026 06 19 04  22 14 28.452   +16 55 35.13  1.5179 2.0170 103.7 20.9 32.4 155
2026 06 19 05  22 14 29.083   +16 56 36.39  1.5177 2.0172 103.8 20.9 33.7 155
2026 06 19 06  22 14 29.710   +16 57 37.63  1.5176 2.0174 103.8 20.9 35.0 155
2026 06 19 07  22 14 30.334   +16 58 38.86  1.5174 2.0176 103.8 20.9 36.4 155
2026 06 19 08  22 14 30.954   +16 59 40.07  1.5172 2.0178 103.8 20.9 37.7 155
2026 06 19 09  22 14 31.572   +17 00 41.26  1.5171 2.0179 103.9 20.9 39.1 155
2026 06 19 10  22 14 32.186   +17 01 42.44  1.5169 2.0181 103.9 20.9 40.5 155
2026 06 19 11  22 14 32.797   +17 02 43.60  1.5168 2.0183 103.9 20.9 41.9 155
2026 06 19 12  22 14 33.405   +17 03 44.74  1.5166 2.0185 103.9 20.9 43.4 155
2026 06 19 13  22 14 34.009   +17 04 45.86  1.5165 2.0187 104.0 20.9 44.9 155
2026 06 19 14  22 14 34.610   +17 05 46.97  1.5163 2.0189 104.0 20.9 46.4 155
2026 06 19 15  22 14 35.209   +17 06 48.07  1.5162 2.0191 104.0 20.9 47.9 155
2026 06 19 16  22 14 35.804   +17 07 49.14  1.5160 2.0193 104.0 20.9 49.5 155
2026 06 19 17  22 14 36.395   +17 08 50.20  1.5158 2.0194 104.1 20.9 51.0 155
2026 06 19 18  22 14 36.984   +17 09 51.24  1.5157 2.0196 104.1 20.9 52.6 155